Regional Weather Roundup
Issued by NWS Albany, NY

Home | Current Version | Previous Version | Text Only | Print | Product List | Glossary On
Versions: 1 2 3 4 5 6 7 8 9 10 11 12 13 14 15 16 17 18 19 20 21 22 23 24 25 26 27 28 29 30 31 32 33 34 35 36 37 38 39 40 41 42 43 44 45 46 47 48 49 50
000
ASUS41 KALY 020110
RWRALY

NEW YORK STATE HOURLY WEATHER ROUNDUP
NATIONAL WEATHER SERVICE ALBANY NY
900 PM EDT WED JUL 01 2015

NOTE: "FAIR" INDICATES FEW OR NO CLOUDS BELOW 12,000 FEET WITH NO
SIGNIFICANT WEATHER AND/OR NO OBSTRUCTIONS TO VISIBILITY.

NYZ032-033-038>043-046>054-057>066-NYZ062>081-020200-
EAST


CITY           SKY/WX    TMP DP  RH WIND       PRES   REMARKS
ALBANY         PTCLDY    68  58  70 SW3       29.80R
GLENS FALLS    CLEAR     67  57  70 SW6       29.75R
POUGHKEEPSIE   PTCLDY    73  60  63 W3        29.80R
NEWBURGH       CLOUDY    72  63  73 W12G28    29.83R
WHITE PLAINS   MOCLDY    76  57  51 W7        29.83R
ISLIP          MOCLDY    74  66  76 SW7       29.80R
NEW YORK CITY  MOCLDY    80  57  45 W13       29.81R
CENTRAL PARK   MOCLDY    79  57  46 VRB5      29.85R
$$

NYZ005>009-017-018-044>046-055-056-020200-
CENTRAL


CITY           SKY/WX    TMP DP  RH WIND       PRES   REMARKS
FULTON         CLEAR     64  55  72 W14       29.82R
SYRACUSE       PTCLDY    67  57  70 W9        29.82R
ROME           MOCLDY    64  58  80 W7        29.82R
ELMIRA         CLEAR     64  60  87 NW5       29.87R
BINGHAMTON     CLEAR     63  57  81 W7        29.87R
MONTICELLO     CLEAR     64  59  82 W3        29.88R
$$

NYZ026>034-041>043-020200-
NORTH


CITY           SKY/WX    TMP DP  RH WIND       PRES   REMARKS
WATERTOWN      MOCLDY    61  58  90 SW7       29.78R
FORT DRUM      NOT AVBL
MASSENA        PTCLDY    62  57  83 W7        29.74R
SARANAC LAKE   CLOUDY    59  56  89 SW5       29.75R
PLATTSBURGH    MOCLDY    66  57  72 VRB5      29.70R
$$

NYZ001>004-010>016-019>021-020200-
WEST


CITY           SKY/WX    TMP DP  RH WIND       PRES   REMARKS
NIAGARA FALLS  MOCLDY    65  55  70 W8        29.87R
BUFFALO        MOCLDY    64  60  87 SW7       29.88R
DUNKIRK        CLEAR     64  59  83 SW12      29.91R
JAMESTOWN      PTCLDY    61  55  82 SW6       29.94R
WELLSVILLE     CLEAR     60  55  83 W6        29.94R
ROCHESTER      PTCLDY    66  56  70 W6        29.86R
PENN YAN       CLOUDY    67  59  75 W6        29.87R
$$

             KEY
       WCI = WIND CHILL INDEX
       VSB = VISIBILITY
       HX  = HEAT INDEX
$$


USA.gov is the U.S. government's official web portal to all federal, state and local government web resources and services.